W8DRH-13 Weather Reports


time (UTC)temp
C
wind
direction
speed
KPH
gust
KPH
rain 1hr
cm
rain 24hr
cm
rain mn
cm
humidity
%
barometer
mb
20260903060224 26 251 8.0 9.7 0.00 0.00 0.00 81 1013.6
20260903055721 26 247 6.4 9.7 0.00 0.00 0.00 81 1013.6
20260903055220 26 244 8.0 11.3 0.00 0.00 0.00 81 1013.5
20260903054715 26 221 6.4 11.3 0.00 0.00 0.00 81 1013.6
20260903054210 26 250 8.0 11.3 0.00 0.00 0.00 81 1013.5
20260903053707 26 236 6.4 6.4 0.00 0.00 0.00 81 1013.7
20260903053201 27 260 6.4 6.4 0.00 0.00 0.00 81 1013.3
20260903052657 27 262 8.0 9.7 0.00 0.00 0.00 80 1013.6
20260903052153 27 289 6.4 9.7 0.00 0.00 0.00 80 1013.5
20260903051647 27 249 8.0 9.7 0.00 0.00 0.00 80 1013.6
20260903051143 27 282 8.0 9.7 0.00 0.00 0.00 80 1013.5
20260903050638 27 284 8.0 9.7 0.00 0.00 0.00 80 1013.4
20260903050132 27 248 9.7 11.3 0.00 0.00 0.00 80 1013.4
20260903045632 27 266 8.0 11.3 0.00 0.00 0.00 80 1013.3
20260903045129 27 263 9.7 11.3 0.00 0.00 0.00 79 1013.1
20260903044624 27 270 6.4 11.3 0.00 0.00 0.00 79 1013.2
20260903044120 27 249 6.4 9.7 0.00 0.00 0.00 79 1013.1
20260903043616 27 278 11.3 12.9 0.00 0.00 0.00 79 1013.2
20260903043115 27 289 9.7 11.3 0.00 0.00 0.00 79 1013.2
20260903042615 27 252 11.3 12.9 0.00 0.00 0.00 79 1013.1
20260903042110 27 262 9.7 12.9 0.00 0.00 0.00 79 1013.1
20260903041607 27 265 9.7 11.3 0.00 0.00 0.00 79 1013.1
20260903041102 27 245 6.4 6.4 0.00 0.00 0.00 79 1013.0
20260903040601 27 284 8.0 11.3 0.00 0.00 0.00 79 1013.0
20260903040058 27 254 6.4 9.7 0.00 0.00 0.00 79 1012.8
20260903035553 27 218 6.4 9.7 0.00 0.00 0.00 79 1012.8
20260903035049 27 220 9.7 12.9 0.00 0.00 0.00 79 1012.8
20260903034543 27 234 6.4 6.4 0.00 0.00 0.00 79 1013.0
20260903034039 27 220 9.7 12.9 0.00 0.00 0.00 79 1012.9
20260903033533 27 250 6.4 6.4 0.00 0.00 0.00 79 1012.8
20260903033029 27 255 8.0 9.7 0.00 0.00 0.00 79 1013.0
20260903032524 27 211 8.0 12.9 0.00 0.00 0.00 79 1012.8
20260903032019 27 233 9.7 11.3 0.00 0.00 0.00 79 1013.0
20260903031519 27 247 8.0 9.7 0.00 0.00 0.00 79 1013.0
20260903031014 27 234 8.0 9.7 0.00 0.00 0.00 79 1013.2
20260903030509 27 238 4.8 4.8 0.00 0.00 0.00 79 1013.3
20260903030006 27 244 8.0 11.3 0.00 0.00 0.00 79 1013.3
20260903025501 27 260 8.0 11.3 0.00 0.00 0.00 79 1013.5
20260903024956 27 240 6.4 6.4 0.00 0.00 0.00 79 1013.4
20260903024455 27 240 8.0 9.7 0.00 0.00 0.00 79 1013.5
20260903023950 27 238 6.4 6.4 0.00 0.00 0.00 79 1013.5
20260903023446 27 228 6.4 6.4 0.00 0.00 0.00 79 1013.6
20260903022941 27 231 6.4 6.4 0.00 0.00 0.00 79 1013.6
20260903022440 27 232 6.4 6.4 0.00 0.00 0.00 79 1013.6
20260903021938 27 225 6.4 9.7 0.00 0.00 0.00 79 1013.5
20260903021434 27 231 4.8 4.8 0.00 0.00 0.00 79 1013.7
20260903020929 27 239 6.4 6.4 0.00 0.00 0.00 79 1013.4
20260903020424 28 217 4.8 4.8 0.00 0.00 0.00 79 1013.4
20260903015919 28 250 6.4 9.7 0.00 0.00 0.00 78 1013.4
20260903015415 28 224 4.8 6.4 0.00 0.00 0.00 78 1013.6
20260903014910 28 228 6.4 6.4 0.00 0.00 0.00 78 1013.6
20260903014408 28 232 6.4 9.7 0.00 0.00 0.00 78 1013.6
20260903013904 28 224 6.4 6.4 0.00 0.00 0.00 77 1013.5
20260903013403 28 236 3.2 3.2 0.00 0.00 0.00 77 1013.6
20260903012903 28 223 6.4 6.4 0.00 0.00 0.00 77 1013.6
20260903012357 28 232 6.4 6.4 0.00 0.00 0.00 76 1013.6
20260903011855 28 229 6.4 6.4 0.00 0.00 0.00 76 1013.3
20260903011350 28 214 6.4 6.4 0.00 0.00 0.00 76 1013.4
20260903010846 28 214 4.8 4.8 0.00 0.00 0.00 76 1013.3
20260903010341 28 232 6.4 6.4 0.00 0.00 0.00 76 1013.3
20260903005839 28 223 3.2 3.2 0.00 0.00 0.00 76 1013.4
20260903005335 28 211 4.8 4.8 0.00 0.00 0.00 75 1013.3
20260903004831 29 224 4.8 4.8 0.00 0.00 0.00 75 1013.1
20260903004325 29 228 4.8 4.8 0.00 0.00 0.00 75 1013.2
20260903003815 29 224 4.8 6.4 0.00 0.00 0.00 74 1013.4
20260903003310 29 213 4.8 6.4 0.00 0.00 0.00 74 1013.1
20260903002804 29 228 4.8 4.8 0.00 0.00 0.00 74 1013.1
20260903002306 29 209 3.2 3.2 0.00 0.00 0.00 74 1013.2
20260903001759 30 230 4.8 4.8 0.00 0.00 0.00 73 1013.1
20260903001254 30 228 4.8 4.8 0.00 0.00 0.00 73 1013.3
20260903000748 30 204 3.2 3.2 0.00 0.00 0.00 72 1013.0
20260903000243 30 228 3.2 4.8 0.00 0.00 0.00 72 1013.3
20260902235742 30 228 4.8 4.8 0.00 0.00 0.00 71 1013.1
20260902235237 30 230 4.8 4.8 0.00 0.00 0.00 71 1013.0
20260902234736 30 215 4.8 4.8 0.00 0.00 0.00 71 1013.1
20260902234235 30 212 3.2 4.8 0.00 0.00 0.00 70 1012.9
20260902233730 31 224 6.4 6.4 0.00 0.00 0.00 70 1012.9
20260902233230 31 222 3.2 3.2 0.00 0.00 0.00 69 1012.7
20260902232728 31 234 6.4 9.7 0.00 0.00 0.00 68 1013.1
20260902232223 31 276 6.4 6.4 0.00 0.00 0.00 68 1012.9
20260902231717 31 240 8.0 9.7 0.00 0.00 0.00 67 1013.0
20260902231212 31 280 8.0 9.7 0.00 0.00 0.00 66 1012.8
20260902230707 31 233 4.8 6.4 0.00 0.00 0.00 66 1012.9
20260902230206 32 202 4.8 6.4 0.00 0.00 0.00 66 1012.9
20260902225700 32 250 9.7 11.3 0.00 0.00 0.00 65 1012.8
20260902225155 32 221 8.0 9.7 0.00 0.00 0.00 65 1013.0
20260902224653 32 228 6.4 6.4 0.00 0.00 0.00 64 1013.1
20260902224149 32 234 8.0 9.7 0.00 0.00 0.00 64 1013.0
20260902223645 32 231 4.8 4.8 0.00 0.00 0.00 64 1012.9
20260902223144 32 305 6.4 9.7 0.00 0.00 0.00 63 1013.1
20260902222638 32 272 8.0 9.7 0.00 0.00 0.00 63 1013.0
20260902222136 32 223 8.0 12.9 0.00 0.00 0.00 63 1013.1
20260902221631 33 241 8.0 9.7 0.00 0.00 0.00 63 1013.0
20260902221125 33 227 8.0 9.7 0.00 0.00 0.00 62 1013.1
20260902220621 33 271 9.7 9.7 0.00 0.00 0.00 61 1013.2
20260902220116 33 283 4.8 4.8 0.00 0.00 0.00 62 1013.1
20260902215612 33 237 11.3 12.9 0.00 0.00 0.00 61 1013.1
20260902215107 33 213 8.0 11.3 0.00 0.00 0.00 61 1013.0
20260902214602 33 255 12.9 14.5 0.00 0.00 0.00 60 1013.0
20260902214101 32 229 14.5 22.5 0.00 0.00 0.00 61 1013.1
20260902213557 33 238 12.9 14.5 0.00 0.00 0.00 62 1013.1
20260902213056 33 232 11.3 14.5 0.00 0.00 0.00 62 1013.1
20260902212552 33 250 14.5 22.5 0.00 0.00 0.00 62 1013.0
20260902212048 33 283 16.1 20.9 0.00 0.00 0.00 61 1013.1
20260902211543 33 234 12.9 14.5 0.00 0.00 0.00 60 1013.2
20260902211038 33 220 9.7 12.9 0.00 0.00 0.00 62 1013.2
20260902210538 33 252 11.3 12.9 0.00 0.00 0.00 62 1013.3
20260902210032 33 233 12.9 14.5 0.00 0.00 0.00 62 1013.3
20260902205526 33 237 6.4 6.4 0.00 0.00 0.00 62 1013.4
20260902205022 33 230 11.3 12.9 0.00 0.00 0.00 60 1013.3
20260902204521 33 222 11.3 14.5 0.00 0.00 0.00 61 1013.4
20260902204017 33 225 14.5 16.1 0.00 0.00 0.00 62 1013.4
20260902203512 33 296 14.5 16.1 0.00 0.00 0.00 61 1013.5
20260902203011 33 212 4.8 6.4 0.00 0.00 0.00 63 1013.6
20260902202507 33 233 12.9 17.7 0.00 0.00 0.00 63 1013.6
20260902202004 33 238 11.3 12.9 0.00 0.00 0.00 61 1013.7
20260902201503 33 254 9.7 12.9 0.00 0.00 0.00 62 1013.7
20260902200958 33 289 12.9 14.5 0.00 0.00 0.00 62 1013.7
20260902200453 33 272 6.4 9.7 0.00 0.00 0.00 63 1013.9
20260902195948 33 233 8.0 9.7 0.00 0.00 0.00 61 1013.6
20260902195444 33 218 6.4 9.7 0.00 0.00 0.00 62 1013.8
20260902194938 33 246 12.9 16.1 0.00 0.00 0.00 62 1013.9
20260902194437 33 219 9.7 14.5 0.00 0.00 0.00 63 1013.9
20260902193933 33 256 11.3 14.5 0.00 0.00 0.00 62 1014.1
20260902193428 32 297 11.3 14.5 0.00 0.00 0.00 64 1014.0
20260902192927 33 278 8.0 12.9 0.00 0.00 0.00 63 1014.1
20260902192426 33 266 11.3 12.9 0.00 0.00 0.00 62 1014.2
20260902191925 33 248 8.0 9.7 0.00 0.00 0.00 62 1014.3
20260902191421 33 287 8.0 11.3 0.00 0.00 0.00 62 1014.4
20260902190916 33 261 11.3 14.5 0.00 0.00 0.00 62 1014.3
20260902190411 33 223 9.7 9.7 0.00 0.00 0.00 64 1014.4
20260902185907 33 221 3.2 6.4 0.00 0.00 0.00 64 1014.4
20260902185402 32 249 11.3 14.5 0.00 0.00 0.00 63 1014.5
20260902184857 33 251 14.5 14.5 0.00 0.00 0.00 63 1014.6
20260902184353 32 236 3.2 4.8 0.00 0.00 0.00 65 1014.4
20260902183848 33 236 9.7 12.9 0.00 0.00 0.00 64 1014.6
20260902183344 32 291 8.0 9.7 0.00 0.00 0.00 64 1014.5
20260902182840 32 230 9.7 11.3 0.00 0.00 0.00 64 1014.9
20260902182336 32 224 6.4 6.4 0.00 0.00 0.00 62 1014.8
20260902181832 32 258 8.0 11.3 0.00 0.00 0.00 63 1014.9
20260902181328 32 252 9.7 11.3 0.00 0.00 0.00 64 1015.1
20260902180821 32 259 9.7 12.9 0.00 0.00 0.00 65 1015.1
20260902180317 32 257 8.0 9.7 0.00 0.00 0.00 65 1014.9
20260902175812 32 263 4.8 4.8 0.00 0.00 0.00 65 1015.1
20260902175308 32 237 9.7 11.3 0.00 0.00 0.00 64 1015.1
20260902174803 32 226 11.3 14.5 0.00 0.00 0.00 65 1015.1
20260902174300 32 271 6.4 6.4 0.00 0.00 0.00 64 1015.1
20260902173755 32 259 4.8 4.8 0.00 0.00 0.00 66 1015.2
20260902173249 32 263 9.7 11.3 0.00 0.00 0.00 65 1015.3
20260902172743 32 243 8.0 11.3 0.00 0.00 0.00 64 1015.4
20260902172238 32 228 9.7 12.9 0.00 0.00 0.00 67 1015.4
20260902171733 32 263 9.7 12.9 0.00 0.00 0.00 66 1015.5
20260902171228 32 278 12.9 16.1 0.00 0.00 0.00 65 1015.6
20260902170724 32 217 9.7 11.3 0.00 0.00 0.00 65 1015.8
20260902170219 32 279 11.3 12.9 0.00 0.00 0.00 68 1015.6
20260902165714 31 214 4.8 6.4 0.00 0.00 0.00 70 1015.6
20260902165209 31 236 6.4 6.4 0.00 0.00 0.00 70 1015.6
20260902164708 31 231 8.0 11.3 0.00 0.00 0.00 71 1015.6
20260902164203 31 258 8.0 11.3 0.00 0.00 0.00 71 1015.9
20260902163658 31 245 6.4 9.7 0.00 0.00 0.00 72 1016.0
20260902163158 31 232 8.0 9.7 0.00 0.00 0.00 72 1015.9
20260902162656 31 215 1.6 3.2 0.00 0.00 0.00 75 1015.8
20260902162150 31 226 6.4 6.4 0.00 0.00 0.00 73 1015.7
20260902161646 30 259 6.4 6.4 0.00 0.00 0.00 75 1015.8
20260902161142 30 278 4.8 4.8 0.00 0.00 0.00 75 1015.8
20260902160638 30 242 6.4 9.7 0.00 0.00 0.00 75 1015.7
20260902160133 30 214 3.2 4.8 0.00 0.00 0.00 75 1015.9
20260902155631 30 214 1.6 1.6 0.00 0.00 0.00 75 1015.8
20260902155130 30 213 1.6 3.2 0.00 0.00 0.00 75 1015.7
20260902154625 30 213 3.2 4.8 0.00 0.00 0.00 76 1015.9
20260902154120 30 213 3.2 4.8 0.00 0.00 0.00 77 1015.8
20260902153619 30 213 4.8 4.8 0.00 0.00 0.00 77 1015.8
20260902153114 29 213 1.6 1.6 0.00 0.00 0.00 79 1015.8
20260902152611 28 214 3.2 4.8 0.00 0.00 0.00 78 1015.8
20260902152106 28 214 6.4 6.4 0.00 0.00 0.00 78 1015.9
20260902151602 29 213 3.2 3.2 0.00 0.00 0.00 78 1015.9
20260902151101 29 213 1.6 3.2 0.00 0.00 0.00 77 1015.7
20260902150556 29 213 1.6 1.6 0.00 0.00 0.00 75 1015.7
20260902150051 29 213 1.6 3.2 0.00 0.00 0.00 77 1016.0
20260902145541 28 213 1.6 1.6 0.00 0.00 0.00 76 1015.9
20260902145040 28 213 4.8 4.8 0.00 0.00 0.00 76 1015.6
20260902144538 28 213 3.2 3.2 0.00 0.00 0.00 76 1015.7
20260902144037 28 213 4.8 4.8 0.00 0.00 0.00 76 1015.7
20260902143532 28 213 4.8 4.8 0.00 0.00 0.00 77 1015.7
20260902143028 28 213 3.2 3.2 0.00 0.00 0.00 77 1015.7
20260902142523 28 213 4.8 4.8 0.00 0.00 0.00 78 1015.3
20260902142018 27 213 0.0 1.6 0.00 0.00 0.00 79 1015.6
20260902141513 27 213 0.0 1.6 0.00 0.00 0.00 80 1015.3
20260902141008 27 213 1.6 1.6 0.00 0.00 0.00 80 1015.6
20260902140503 27 213 1.6 1.6 0.00 0.00 0.00 80 1015.7
20260902140003 27 213 1.6 1.6 0.00 0.00 0.00 81 1015.7
20260902135458 27 213 0.0 1.6 0.00 0.00 0.00 82 1015.5
20260902134958 26 213 0.0 1.6 0.00 0.00 0.00 82 1015.7
20260902134454 26 213 1.6 1.6 0.00 0.00 0.00 83 1015.6
20260902133953 26 214 0.0 1.6 0.00 0.00 0.00 84 1015.7
20260902133448 26 214 0.0 0.0 0.00 0.00 0.00 84 1015.7
20260902132943 25 214 0.0 1.6 0.00 0.00 0.00 84 1015.9
20260902132438 25 214 1.6 1.6 0.00 0.00 0.00 86 1015.8
20260902131933 25 214 3.2 3.2 0.00 0.00 0.00 86 1015.7
20260902131430 25 214 1.6 1.6 0.00 0.00 0.00 86 1015.8
20260902130930 25 203 0.0 1.6 0.00 0.00 0.00 87 1015.5
20260902130426 25 135 0.0 1.6 0.00 0.00 0.00 88 1015.7
20260902125925 24 135 0.0 1.6 0.00 0.00 0.00 88 1015.7
20260902125422 24 133 1.6 1.6 0.00 0.00 0.00 88 1015.7
20260902124917 24 129 0.0 0.0 0.00 0.00 0.00 88 1015.5
20260902124414 23 135 0.0 1.6 0.00 0.00 0.00 89 1015.4
20260902123914 23 134 1.6 1.6 0.00 0.00 0.00 90 1015.5
20260902123410 23 118 1.6 1.6 0.00 0.00 0.00 90 1015.4
20260902122908 23 112 0.0 1.6 0.00 0.00 0.00 90 1015.5
20260902122404 23 124 0.0 0.0 0.00 0.00 0.00 91 1015.4
20260902121859 23 125 1.6 1.6 0.00 0.00 0.00 91 1015.5
20260902121354 23 118 0.0 0.0 0.00 0.00 0.00 91 1015.5
20260902120849 23 127 0.0 0.0 0.00 0.00 0.00 91 1015.6
20260902120346 22 126 0.0 0.0 0.00 0.00 0.00 92 1015.2
20260902115845 22 122 1.6 1.6 0.00 0.00 0.00 92 1015.4
20260902115342 22 128 1.6 1.6 0.00 0.00 0.00 92 1015.3
20260902114838 22 112 0.0 0.0 0.00 0.00 0.00 93 1015.2
20260902114334 22 121 0.0 1.6 0.00 0.00 0.00 93 1015.4
20260902113834 22 118 0.0 0.0 0.00 0.00 0.00 94 1015.3
20260902113330 22 124 0.0 0.0 0.00 0.00 0.00 94 1015.4
20260902112823 22 154 1.6 1.6 0.00 0.00 0.00 94 1015.3
20260902112320 22 154 1.6 1.6 0.00 0.00 0.00 94 1015.1
20260902111815 22 154 0.0 0.0 0.00 0.00 0.00 94 1015.2
20260902111312 22 154 0.0 0.0 0.00 0.00 0.00 94 1015.1
20260902110807 22 154 0.0 0.0 0.00 0.00 0.00 94 1015.0
20260902110303 22 154 0.0 0.0 0.00 0.00 0.00 94 1015.0
20260902105803 22 154 0.0 0.0 0.00 0.00 0.00 94 1014.9
20260902105258 22 154 0.0 0.0 0.00 0.00 0.00 94 1015.0
20260902104753 22 154 0.0 1.6 0.00 0.00 0.00 94 1015.0
20260902104249 22 154 0.0 0.0 0.00 0.00 0.00 94 1015.0
20260902103748 22 159 0.0 0.0 0.00 0.00 0.00 94 1015.0
20260902103243 22 159 0.0 0.0 0.00 0.00 0.00 94 1014.9
20260902102738 22 159 0.0 0.0 0.00 0.00 0.00 94 1014.9
20260902102236 22 159 0.0 0.0 0.00 0.00 0.00 94 1014.9
20260902101731 22 159 0.0 0.0 0.00 0.00 0.00 94 1014.8
20260902101226 22 159 0.0 0.0 0.00 0.00 0.00 94 1014.9
20260902100725 22 159 0.0 0.0 0.00 0.00 0.00 93 1014.8
20260902100220 22 159 0.0 1.6 0.00 0.00 0.00 93 1014.8
20260902095719 22 162 0.0 0.0 0.00 0.00 0.00 93 1014.9
20260902095214 22 163 1.6 1.6 0.00 0.00 0.00 93 1014.8
20260902094708 22 163 0.0 0.0 0.00 0.00 0.00 93 1014.8
20260902094205 22 163 0.0 0.0 0.00 0.00 0.00 93 1014.9
20260902093659 22 163 0.0 0.0 0.00 0.00 0.00 93 1014.8
20260902093154 22 165 1.6 1.6 0.00 0.00 0.00 93 1015.0
20260902092649 22 165 0.0 1.6 0.00 0.00 0.00 93 1015.0
20260902092148 22 165 0.0 0.0 0.00 0.00 0.00 93 1014.9
20260902091643 22 165 1.6 3.2 0.00 0.00 0.00 93 1015.0
20260902091140 22 166 1.6 1.6 0.00 0.00 0.00 93 1015.2
20260902090635 22 168 3.2 4.8 0.00 0.00 0.00 93 1015.0
20260902090134 22 168 1.6 1.6 0.00 0.00 0.00 93 1015.0
20260902085629 22 168 3.2 3.2 0.00 0.00 0.00 93 1014.9
20260902085124 22 168 1.6 3.2 0.00 0.00 0.00 93 1014.9
20260902084620 22 168 1.6 1.6 0.00 0.00 0.00 93 1014.6
20260902084116 22 168 0.0 0.0 0.00 0.00 0.00 93 1014.9
20260902083611 22 168 0.0 0.0 0.00 0.00 0.00 92 1014.8
20260902083110 22 168 1.6 1.6 0.00 0.00 0.00 93 1014.8
20260902082606 22 168 0.0 1.6 0.00 0.00 0.00 92 1014.6
20260902082103 22 169 0.0 1.6 0.00 0.00 0.00 93 1014.8
20260902081559 22 169 0.0 0.0 0.00 0.00 0.00 92 1014.8
20260902081059 22 169 1.6 1.6 0.00 0.00 0.00 93 1014.8
20260902080554 22 178 1.6 1.6 0.00 0.00 0.00 93 1014.6
20260902080050 22 178 0.0 0.0 0.00 0.00 0.00 93 1014.3
20260902075550 22 178 0.0 0.0 0.00 0.00 0.00 93 1014.5
20260902075046 22 178 0.0 1.6 0.00 0.00 0.00 93 1014.6
20260902074542 23 178 0.0 1.6 0.00 0.00 0.00 92 1014.8
20260902074037 23 179 0.0 0.0 0.00 0.00 0.00 92 1014.6
20260902073532 23 178 0.0 0.0 0.00 0.00 0.00 91 1014.5
20260902073028 23 178 0.0 0.0 0.00 0.00 0.00 91 1014.3
20260902072523 23 178 0.0 0.0 0.00 0.00 0.00 91 1014.5
20260902072020 23 178 1.6 1.6 0.00 0.00 0.00 91 1014.4
20260902071519 23 178 0.0 0.0 0.00 0.00 0.00 91 1014.5
20260902071017 23 178 1.6 1.6 0.00 0.00 0.00 91 1014.4
20260902070512 23 179 1.6 1.6 0.00 0.00 0.00 91 1014.5
20260902070011 23 179 0.0 1.6 0.00 0.00 0.00 91 1014.5
20260902065506 23 179 1.6 1.6 0.00 0.00 0.00 91 1014.4
20260902065001 23 179 0.0 0.0 0.00 0.00 0.00 91 1014.4
20260902064456 23 191 0.0 1.6 0.00 0.00 0.00 91 1014.8
20260902063952 23 193 1.6 1.6 0.00 0.00 0.00 91 1014.6
20260902063451 23 193 0.0 0.0 0.00 0.00 0.00 91 1014.5
20260902062947 23 193 0.0 1.6 0.00 0.00 0.00 91 1014.5
20260902062446 23 193 0.0 0.0 0.00 0.00 0.00 90 1014.9
20260902061941 23 193 1.6 1.6 0.00 0.00 0.00 89 1014.6
20260902061436 24 193 1.6 1.6 0.00 0.00 0.00 88 1014.8
20260902060932 25 193 0.0 1.6 0.00 0.00 0.00 86 1014.8
20260902060428 25 193 1.6 1.6 0.00 0.00 0.00 85 1014.8